Weather in Podsolnechnoye

Russia / Samara Oblast     53°09′02″N   52°01′05″E
temp.,
°C
wind,
m/s
gust,
m/s
humid.,
%
clouds,
%
prec.,
mm/h
press.,
hPa
HPBL,
m
19 january, wed
wed1901:00−3ssw71596100 1.0 1017659
04:00−4s61495100 1.6 1018492
07:00−4s61396100 0.9 1018512
10:00−4s71593100 1.3 1018528
13:00−3s71592100 0.0 1019557
16:00−4s71392100 0.0 1019437
19:00−5s61495100 0.8 1020491
22:00−6s61295100 1.8 1020445
20 january, thu
thu2001:00−6s51295100 1.1 1021392
04:00−6s51195100 2.0 1022351
07:00−8sse51094100 0.3 1022269
10:00−8sse5119175 0.3 1023298
13:00−8s5118723 0.0 1023312
16:00−11sse35926 0.0 102361
19:00−15se38929 0.0 102384
22:00−18se239356 0.0 102429
21 january, fri
fri2101:00−19se229517 0.0 102325
04:00−20ese229678 0.0 102412
07:00−18ese229783 0.0 102337
10:00−16ese259976 0.1 102489
13:00−10se369588 0.0 1023207
16:00−10se4795100 0.1 1023202
19:00−13se3993100 0.0 1023151
22:00−13se41087100 0.0 1023198
22 january, sat
sat2201:00−11se41195100 0.1 1023266
04:00−10se51294100 0.6 1023336
07:00−10se51189100 0.1 1023300
10:00−10se51187100 0.1 1024277
13:00−9sse51188100 0.0 1025377
16:00−9se5109099 0.0 1025284
19:00−11se51091100 0.0 1026216
22:00−11se51092100 0.0 1028199
23 january, sun
sun2301:00−12se4989100 0.0 1029171
04:00−14ese3790100 0.0 1030108
07:00−13se3890100 0.0 1031135
10:00−12se4990100 0.0 1032173
13:00−9se4788100 0.0 1032233
16:00−8ese3791100 0.0 1033232
19:00−11e3694100 0.0 1034111
22:00−10ese41091100 0.0 1034166